Location: Budapest
(47.4979°N, 19.0402°E)
Time: 20:58:43
(UTC+01:00)

ISS - Visible Passes

Search period start: 25 February 2021 00:00
Search period end: 07 March 2021 00:00
Orbit: 417 x 422 km, 51.6° (Epoch: 26 February)

Date Brightness Start Highest point End Pass type
(mag) Time Alt. Az. Time Alt. Az. Time Alt. Az.
25 Feb -3.7 04:50:14 49° SW 04:50:58 72° SSE 04:54:20 10° ENE visible
26 Feb -2.0 04:04:45 32° E 04:04:45 32° E 04:06:50 10° ENE visible
26 Feb -3.3 05:37:43 14° W 05:40:25 49° NNW 05:43:42 10° ENE visible
27 Feb -0.2 03:19:12 10° E 03:19:12 10° E 03:19:15 10° E visible
27 Feb -3.6 04:52:10 46° WNW 04:52:54 61° NNW 04:56:15 10° ENE visible
28 Feb -2.3 04:06:33 38° ENE 04:06:33 38° ENE 04:08:46 10° ENE visible
28 Feb -2.9 05:39:31 11° WNW 05:42:29 39° N 05:45:41 10° ENE visible
01 Mar -0.4 03:20:54 13° ENE 03:20:54 13° ENE 03:21:17 10° ENE visible
01 Mar -3.0 04:53:52 31° NW 04:54:54 42° N 04:58:08 10° ENE visible
02 Mar -2.5 04:08:11 38° NNE 04:08:11 38° NNE 04:10:37 10° ENE visible
02 Mar -2.8 05:41:19 10° WNW 05:44:32 41° N 05:47:45 10° E visible
03 Mar -0.6 03:22:28 15° ENE 03:22:28 15° ENE 03:23:06 10° ENE visible
03 Mar -2.8 04:55:25 24° NW 04:56:56 39° N 05:00:07 10° ENE visible
04 Mar -2.6 04:09:43 37° NNE 04:09:43 37° NNE 04:12:30 10° ENE visible
04 Mar -3.3 05:43:09 10° WNW 05:46:29 57° NNE 05:49:49 10° E visible
05 Mar -0.8 03:24:00 17° ENE 03:24:00 17° ENE 03:24:55 10° ENE visible
05 Mar -3.0 04:56:57 21° NW 04:58:54 46° NNE 05:02:10 10° E visible
06 Mar -2.8 04:11:15 41° N 04:11:16 41° N 04:14:29 10° E visible
